Location: Borealis Mine
(38.3824°N, 118.7610°W)
Time: 17:35:21
(UTC+00:00)

Meteor 1-11 Rocket - Pass Details

Date: 18 September 2020
Orbit: 830 x 916 km, 81.2° (Epoch: 19 October)

Event Time Altitude Azimuth Distance (km) Brightness Sun altitude
Rises 12:04:35 0° 355° (N) 3,507 7.1 -19.1°
Reaches altitude 10° 12:07:08 10° 360° (N) 2,551 6.4 -18.7°
Maximum altitude 12:12:49 56° 78° (ENE) 1,031 4.5 -17.6°
Drops below altitude 10° 12:18:20 10° 156° (SSE) 2,478 6.2 -16.6°
Sets 12:20:46 0° 160° (SSE) 3,398 6.9 -16.1°
